Hourly Weather Las Tablas

Today, 26 October, Monday

Time Temperature Precipitation Wind Pressure Humidity
00:00 +27°C° 0 mm 2 mps 752 mmHg 90%
01:00 +27°C° 0 mm 2 mps 752 mmHg 90%
02:00 +26°C° 0 mm 1 mps 751 mmHg 90%
03:00 +26°C° 0 mm 1 mps 751 mmHg 90%
04:00 +26°C° 0 mm 1 mps 751 mmHg 90%
05:00 +26°C° 0 mm 1 mps 751 mmHg 89%
06:00 +27°C° 0 mm 1 mps 751 mmHg 88%
07:00 +27°C° 0 mm 1 mps 752 mmHg 88%
08:00 +28°C° 0.1 mm 1 mps 752 mmHg 83%
09:00 +29°C° 0.1 mm 1 mps 753 mmHg 78%
10:00 +30°C° 0.1 mm 1 mps 753 mmHg 73%
11:00 +31°C° 1.4 mm 1 mps 752 mmHg 73%
12:00 +31°C° 1.4 mm 2 mps 752 mmHg 73%
13:00 +31°C° 1.4 mm 2 mps 751 mmHg 74%
14:00 +31°C° 2.3 mm 2 mps 751 mmHg 75%
15:00 +30°C° 2.3 mm 2 mps 750 mmHg 76%
16:00 +30°C° 2.3 mm 2 mps 750 mmHg 78%
17:00 +29°C° 1.5 mm 2 mps 750 mmHg 81%
18:00 +28°C° 1.5 mm 2 mps 751 mmHg 85%
19:00 +28°C° 1.5 mm 2 mps 751 mmHg 88%
20:00 +27°C° 0.2 mm 2 mps 752 mmHg 89%
21:00 +27°C° 0.2 mm 2 mps 752 mmHg 89%
22:00 +27°C° 0.2 mm 2 mps 752 mmHg 90%
23:00 +27°C° 0.1 mm 2 mps 752 mmHg 90%

Tomorrow, 27 October, Tuesday

Time Temperature Precipitation Wind Pressure Humidity
00:00 +27°C° 0.1 mm 2 mps 752 mmHg 90%
01:00 +26°C° 0.1 mm 2 mps 751 mmHg 90%
02:00 +26°C° 0 mm 2 mps 751 mmHg 91%
03:00 +26°C° 0 mm 2 mps 751 mmHg 91%
04:00 +26°C° 0 mm 2 mps 751 mmHg 91%
05:00 +26°C° 0.1 mm 2 mps 751 mmHg 90%
06:00 +27°C° 0.1 mm 2 mps 751 mmHg 89%
07:00 +27°C° 0.1 mm 2 mps 752 mmHg 88%
08:00 +28°C° 0.8 mm 2 mps 752 mmHg 84%
09:00 +29°C° 0.8 mm 2 mps 752 mmHg 80%
10:00 +30°C° 0.8 mm 1 mps 752 mmHg 75%
11:00 +31°C° 2.5 mm 1 mps 752 mmHg 75%
12:00 +31°C° 2.5 mm 1 mps 751 mmHg 76%
13:00 +31°C° 2.5 mm 1 mps 750 mmHg 76%
14:00 +31°C° 2.3 mm 1 mps 750 mmHg 76%
15:00 +31°C° 2.3 mm 2 mps 750 mmHg 76%
16:00 +30°C° 2.3 mm 2 mps 749 mmHg 77%
17:00 +30°C° 1.8 mm 2 mps 749 mmHg 80%
18:00 +29°C° 1.8 mm 2 mps 750 mmHg 83%
19:00 +28°C° 1.8 mm 2 mps 750 mmHg 87%
20:00 +27°C° 0.3 mm 2 mps 751 mmHg 88%
21:00 +27°C° 0.3 mm 2 mps 751 mmHg 89%
22:00 +27°C° 0.3 mm 3 mps 751 mmHg 89%
23:00 +27°C° 0 mm 3 mps 751 mmHg 89%

Day after tomorrow, 28 October, Wednesday

Time Temperature Precipitation Wind Pressure Humidity
00:00 +27°C° 0 mm 3 mps 751 mmHg 89%
01:00 +27°C° 0 mm 3 mps 751 mmHg 89%
02:00 +26°C° 0.1 mm 3 mps 750 mmHg 89%
03:00 +26°C° 0.1 mm 3 mps 750 mmHg 90%
04:00 +26°C° 0.1 mm 3 mps 750 mmHg 90%
05:00 +27°C° 0.3 mm 2 mps 750 mmHg 89%
06:00 +27°C° 0.3 mm 2 mps 750 mmHg 88%
07:00 +27°C° 0.3 mm 2 mps 751 mmHg 88%
08:00 +28°C° 2 mm 2 mps 751 mmHg 83%
09:00 +30°C° 2 mm 2 mps 751 mmHg 78%
10:00 +31°C° 2 mm 2 mps 752 mmHg 74%
11:00 +31°C° 3 mm 2 mps 751 mmHg 74%
12:00 +31°C° 3 mm 1 mps 750 mmHg 74%
13:00 +31°C° 3 mm 1 mps 750 mmHg 75%
14:00 +30°C° 2.7 mm 1 mps 749 mmHg 76%
15:00 +30°C° 2.7 mm 1 mps 749 mmHg 78%
16:00 +29°C° 2.7 mm 1 mps 749 mmHg 79%
17:00 +29°C° 2.1 mm 2 mps 749 mmHg 82%
18:00 +28°C° 2.1 mm 2 mps 750 mmHg 85%
19:00 +27°C° 2.1 mm 3 mps 750 mmHg 87%
20:00 +27°C° 2 mm 4 mps 750 mmHg 88%
21:00 +27°C° 2 mm 5 mps 751 mmHg 89%
22:00 +26°C° 2 mm 7 mps 751 mmHg 90%
23:00 +26°C° 1.6 mm 6 mps 751 mmHg 91%

29 October, Thursday

Time Temperature Precipitation Wind Pressure Humidity
00:00 +26°C° 1.5 mm 5 mps 751 mmHg 91%
01:00 +26°C° 1.5 mm 3 mps 751 mmHg 91%
02:00 +26°C° 0.4 mm 3 mps 751 mmHg 91%
03:00 +26°C° 0.4 mm 3 mps 751 mmHg 91%
04:00 +26°C° 0.4 mm 3 mps 750 mmHg 90%
05:00 +26°C° 0.1 mm 3 mps 751 mmHg 90%
06:00 +26°C° 0.1 mm 2 mps 751 mmHg 90%
07:00 +26°C° 0.1 mm 1 mps 751 mmHg 89%
08:00 +27°C° 0.8 mm 1 mps 752 mmHg 86%
09:00 +28°C° 0.8 mm 1 mps 752 mmHg 83%
10:00 +29°C° 0.8 mm 1 mps 753 mmHg 80%
11:00 +28°C° 1.8 mm 2 mps 752 mmHg 82%
12:00 +28°C° 1.8 mm 3 mps 751 mmHg 84%
13:00 +28°C° 1.8 mm 3 mps 750 mmHg 85%
14:00 +27°C° 7.7 mm 4 mps 750 mmHg 88%
15:00 +26°C° 7.7 mm 4 mps 750 mmHg 91%
16:00 +25°C° 7.7 mm 4 mps 750 mmHg 94%
17:00 +25°C° 5.5 mm 3 mps 750 mmHg 95%
18:00 +25°C° 5.5 mm 2 mps 751 mmHg 96%
19:00 +25°C° 5.5 mm 2 mps 751 mmHg 96%
20:00 +25°C° 1.3 mm 2 mps 752 mmHg 96%
21:00 +25°C° 1.3 mm 2 mps 752 mmHg 95%
22:00 +25°C° 1.3 mm 2 mps 752 mmHg 95%
23:00 +25°C° 1.3 mm 2 mps 752 mmHg 94%

30 October, Friday

Time Temperature Precipitation Wind Pressure Humidity
00:00 +25°C° 1.3 mm 2 mps 752 mmHg 94%
01:00 +25°C° 1.3 mm 2 mps 752 mmHg 94%
02:00 +25°C° 0.4 mm 2 mps 752 mmHg 93%
03:00 +26°C° 0.4 mm 2 mps 751 mmHg 93%
04:00 +26°C° 0.4 mm 2 mps 751 mmHg 92%
05:00 +26°C° 0.3 mm 3 mps 751 mmHg 92%
06:00 +26°C° 0.3 mm 3 mps 752 mmHg 92%
07:00 +26°C° 0.3 mm 3 mps 752 mmHg 91%
08:00 +27°C° 0.6 mm 3 mps 753 mmHg 87%
09:00 +28°C° 0.6 mm 3 mps 753 mmHg 83%
10:00 +30°C° 0.6 mm 3 mps 753 mmHg 78%
11:00 +30°C° 1.7 mm 3 mps 753 mmHg 78%
12:00 +30°C° 1.7 mm 3 mps 752 mmHg 77%
13:00 +30°C° 1.7 mm 3 mps 752 mmHg 76%
14:00 +30°C° 1.7 mm 4 mps 752 mmHg 76%
15:00 +30°C° 1.7 mm 4 mps 751 mmHg 77%
16:00 +30°C° 1.7 mm 4 mps 751 mmHg 78%
17:00 +29°C° 1.2 mm 4 mps 751 mmHg 81%
18:00 +28°C° 1.2 mm 4 mps 752 mmHg 85%
19:00 +27°C° 1.2 mm 4 mps 752 mmHg 88%
20:00 +27°C° 0.3 mm 3 mps 753 mmHg 89%
21:00 +27°C° 0.3 mm 3 mps 753 mmHg 89%
22:00 +26°C° 0.3 mm 3 mps 753 mmHg 89%
23:00 +26°C° 0 mm 3 mps 753 mmHg 89%

31 October, Saturday

Time Temperature Precipitation Wind Pressure Humidity
00:00 +26°C° 0 mm 3 mps 753 mmHg 90%
01:00 +26°C° 0 mm 2 mps 752 mmHg 90%
Show more